| time (UTC) | temp F | wind direction | speed MPH | gust MPH | rain 1hr in | rain 24hr in | rain mn in | humidity % | barometer mb |
| 20260507145954 | 82 | 68 | 5.0 | 7.0 | 0.00 | 0.00 | 0.00 | 82 | 1013.2 |
| 20260507145453 | 82 | 68 | 6.0 | 9.0 | 0.00 | 0.00 | 0.00 | 82 | 1013.5 |
| 20260507144954 | 82 | 68 | 7.0 | 9.0 | 0.00 | 0.00 | 0.00 | 83 | 1013.5 |
| 20260507144453 | 82 | 68 | 6.0 | 7.0 | 0.00 | 0.00 | 0.00 | 83 | 1013.5 |
| 20260507143955 | 82 | 68 | 2.0 | 2.0 | 0.00 | 0.00 | 0.00 | 84 | 1013.9 |
| 20260507143453 | 82 | 90 | 7.0 | 10.0 | 0.00 | 0.00 | 0.00 | 83 | 1013.5 |
| 20260507142954 | 82 | 68 | 2.0 | 3.0 | 0.00 | 0.00 | 0.00 | 83 | 1013.9 |
| 20260507142453 | 83 | 68 | 7.0 | 9.0 | 0.00 | 0.00 | 0.00 | 82 | 1013.9 |
| 20260507141953 | 83 | 68 | 6.0 | 9.0 | 0.00 | 0.00 | 0.00 | 80 | 1013.9 |
| 20260507141454 | 83 | 45 | 7.0 | 9.0 | 0.00 | 0.00 | 0.00 | 82 | 1013.9 |
| 20260507140954 | 83 | 68 | 8.0 | 10.0 | 0.00 | 0.00 | 0.00 | 82 | 1013.9 |
| 20260507140453 | 83 | 68 | 7.0 | 14.0 | 0.00 | 0.00 | 0.00 | 81 | 1013.5 |
| 20260507135953 | 83 | 68 | 8.0 | 10.0 | 0.00 | 0.00 | 0.00 | 80 | 1013.9 |
| 20260507135453 | 83 | 45 | 9.0 | 11.0 | 0.00 | 0.00 | 0.00 | 81 | 1013.9 |
| 20260507134954 | 83 | 45 | 9.0 | 12.0 | 0.00 | 0.00 | 0.00 | 81 | 1013.5 |
| 20260507134453 | 83 | 68 | 8.0 | 10.0 | 0.00 | 0.00 | 0.00 | 82 | 1013.9 |
| 20260507133955 | 83 | 90 | 7.0 | 8.0 | 0.00 | 0.00 | 0.00 | 82 | 1013.9 |
| 20260507133453 | 83 | 90 | 6.0 | 7.0 | 0.00 | 0.00 | 0.00 | 82 | 1013.5 |
| 20260507132953 | 83 | 45 | 3.0 | 7.0 | 0.00 | 0.00 | 0.00 | 82 | 1013.5 |
| 20260507132453 | 83 | 68 | 7.0 | 9.0 | 0.00 | 0.00 | 0.00 | 83 | 1013.5 |
| 20260507131953 | 83 | 90 | 6.0 | 8.0 | 0.00 | 0.00 | 0.00 | 82 | 1013.2 |
| 20260507131453 | 83 | 45 | 7.0 | 10.0 | 0.00 | 0.00 | 0.00 | 83 | 1013.2 |
| 20260507130954 | 83 | 68 | 3.0 | 4.0 | 0.00 | 0.00 | 0.00 | 83 | 1013.2 |
| 20260507130454 | 82 | 68 | 5.0 | 5.0 | 0.00 | 0.00 | 0.00 | 83 | 1013.2 |
| 20260507125953 | 83 | 90 | 5.0 | 8.0 | 0.00 | 0.00 | 0.00 | 84 | 1013.2 |
| 20260507125454 | 82 | 90 | 6.0 | 7.0 | 0.00 | 0.00 | 0.00 | 84 | 1013.2 |
| 20260507124953 | 82 | 90 | 2.0 | 2.0 | 0.00 | 0.00 | 0.00 | 84 | 1013.2 |
| 20260507124454 | 82 | 90 | 4.0 | 6.0 | 0.00 | 0.00 | 0.00 | 84 | 1013.2 |
| 20260507123954 | 81 | 68 | 3.0 | 4.0 | 0.00 | 0.00 | 0.00 | 87 | 1013.2 |
| 20260507123454 | 81 | 90 | 2.0 | 2.0 | 0.00 | 0.00 | 0.00 | 87 | 1012.9 |
| 20260507122955 | 81 | 68 | 2.0 | 2.0 | 0.00 | 0.00 | 0.00 | 89 | 1012.9 |
| 20260507122453 | 81 | 0 | 1.0 | 2.0 | 0.00 | 0.00 | 0.00 | 89 | 1012.9 |
| 20260507121953 | 81 | 90 | 3.0 | 4.0 | 0.00 | 0.00 | 0.00 | 88 | 1012.9 |
| 20260507121455 | 81 | 90 | 4.0 | 7.0 | 0.00 | 0.00 | 0.00 | 88 | 1012.9 |
| 20260507120955 | 81 | 45 | 2.0 | 2.0 | 0.00 | 0.00 | 0.00 | 87 | 1012.9 |
| 20260507120453 | 81 | 90 | 2.0 | 2.0 | 0.00 | 0.00 | 0.00 | 86 | 1012.9 |
| 20260507115954 | 82 | 90 | 3.0 | 3.0 | 0.00 | 0.00 | 0.00 | 86 | 1012.9 |
| 20260507115453 | 82 | 90 | 1.0 | 2.0 | 0.00 | 0.00 | 0.00 | 85 | 1012.9 |
| 20260507114953 | 82 | 45 | 4.0 | 7.0 | 0.00 | 0.00 | 0.00 | 85 | 1012.9 |
| 20260507114453 | 82 | 113 | 3.0 | 4.0 | 0.00 | 0.00 | 0.00 | 85 | 1012.9 |
| 20260507113953 | 82 | 68 | 3.0 | 4.0 | 0.00 | 0.00 | 0.00 | 85 | 1012.9 |
| 20260507113453 | 82 | 90 | 3.0 | 4.0 | 0.00 | 0.00 | 0.00 | 86 | 1012.5 |
| 20260507112953 | 82 | 68 | 2.0 | 2.0 | 0.00 | 0.00 | 0.00 | 85 | 1012.5 |
| 20260507112453 | 82 | 90 | 3.0 | 3.0 | 0.00 | 0.00 | 0.00 | 83 | 1012.5 |
| 20260507111953 | 82 | 90 | 3.0 | 4.0 | 0.00 | 0.00 | 0.00 | 83 | 1012.5 |
| 20260507111453 | 82 | 113 | 2.0 | 2.0 | 0.00 | 0.00 | 0.00 | 82 | 1012.5 |
| 20260507110953 | 82 | 90 | 4.0 | 6.0 | 0.00 | 0.00 | 0.00 | 82 | 1012.5 |
| 20260507110454 | 83 | 113 | 3.0 | 3.0 | 0.00 | 0.00 | 0.00 | 82 | 1012.5 |
| 20260507105953 | 82 | 45 | 4.0 | 7.0 | 0.00 | 0.00 | 0.00 | 83 | 1012.5 |
| 20260507105454 | 83 | 68 | 4.0 | 5.0 | 0.00 | 0.00 | 0.00 | 83 | 1012.2 |
| 20260507104953 | 83 | 90 | 5.0 | 8.0 | 0.00 | 0.00 | 0.00 | 82 | 1012.2 |
| 20260507104453 | 83 | 68 | 5.0 | 7.0 | 0.00 | 0.00 | 0.00 | 82 | 1012.5 |
| 20260507103954 | 83 | 68 | 5.0 | 8.0 | 0.00 | 0.00 | 0.00 | 83 | 1012.2 |
| 20260507103454 | 83 | 90 | 5.0 | 7.0 | 0.00 | 0.00 | 0.00 | 82 | 1012.2 |
| 20260507102954 | 83 | 68 | 4.0 | 5.0 | 0.00 | 0.00 | 0.00 | 82 | 1011.9 |
| 20260507102454 | 83 | 113 | 2.0 | 2.0 | 0.00 | 0.00 | 0.00 | 82 | 1012.2 |
| 20260507101953 | 83 | 68 | 4.0 | 5.0 | 0.00 | 0.00 | 0.00 | 82 | 1011.9 |
| 20260507101453 | 83 | 90 | 3.0 | 5.0 | 0.00 | 0.00 | 0.00 | 84 | 1012.2 |
| 20260507100953 | 83 | 90 | 2.0 | 3.0 | 0.00 | 0.00 | 0.00 | 83 | 1012.2 |
| 20260507100453 | 82 | 135 | 6.0 | 7.0 | 0.00 | 0.00 | 0.00 | 85 | 1012.2 |
| 20260507095953 | 82 | 68 | 2.0 | 2.0 | 0.00 | 0.00 | 0.00 | 88 | 1012.2 |
| 20260507095453 | 82 | 113 | 1.0 | 2.0 | 0.00 | 0.00 | 0.00 | 87 | 1011.9 |
| 20260507094954 | 82 | 68 | 7.0 | 8.0 | 0.00 | 0.00 | 0.00 | 87 | 1011.9 |
| 20260507094453 | 83 | 90 | 5.0 | 6.0 | 0.00 | 0.00 | 0.00 | 86 | 1011.9 |
| 20260507093953 | 83 | 68 | 2.0 | 3.0 | 0.00 | 0.00 | 0.00 | 85 | 1011.9 |
| 20260507093454 | 83 | 90 | 4.0 | 5.0 | 0.00 | 0.00 | 0.00 | 85 | 1011.9 |
| 20260507092953 | 83 | 45 | 10.0 | 14.0 | 0.00 | 0.00 | 0.00 | 85 | 1011.5 |
| 20260507092453 | 83 | 68 | 7.0 | 8.0 | 0.00 | 0.00 | 0.00 | 85 | 1011.5 |
| 20260507091953 | 83 | 68 | 9.0 | 12.0 | 0.00 | 0.00 | 0.00 | 85 | 1011.5 |
| 20260507091453 | 83 | 90 | 7.0 | 10.0 | 0.00 | 0.00 | 0.00 | 85 | 1011.2 |
| 20260507090953 | 83 | 90 | 12.0 | 16.0 | 0.00 | 0.00 | 0.00 | 84 | 1011.5 |
| 20260507090454 | 83 | 45 | 9.0 | 13.0 | 0.00 | 0.00 | 0.00 | 83 | 1011.5 |
| 20260507085953 | 83 | 68 | 11.0 | 15.0 | 0.00 | 0.00 | 0.00 | 83 | 1011.5 |
| 20260507085455 | 84 | 90 | 6.0 | 7.0 | 0.00 | 0.00 | 0.00 | 83 | 1011.2 |
| 20260507084953 | 84 | 90 | 6.0 | 8.0 | 0.00 | 0.00 | 0.00 | 81 | 1011.2 |
| 20260507084453 | 85 | 68 | 4.0 | 6.0 | 0.00 | 0.00 | 0.00 | 81 | 1010.8 |
| 20260507083551 | 85 | 90 | 10.0 | 14.0 | 0.00 | 0.00 | 0.00 | 79 | 1010.8 |
| 20260507082953 | 85 | 90 | 8.0 | 11.0 | 0.00 | 0.00 | 0.00 | 80 | 1010.8 |
| 20260507082453 | 85 | 90 | 6.0 | 7.0 | 0.00 | 0.00 | 0.00 | 82 | 1011.2 |
| 20260507081953 | 86 | 90 | 9.0 | 13.0 | 0.00 | 0.00 | 0.00 | 80 | 1010.8 |
| 20260507081457 | 86 | 68 | 8.0 | 14.0 | 0.00 | 0.00 | 0.00 | 81 | 1011.2 |
| 20260507080953 | 87 | 23 | 11.0 | 13.0 | 0.00 | 0.00 | 0.00 | 80 | 1011.2 |
| 20260507080453 | 86 | 45 | 10.0 | 13.0 | 0.00 | 0.00 | 0.00 | 83 | 1011.2 |
| 20260507075953 | 87 | 90 | 10.0 | 14.0 | 0.00 | 0.00 | 0.00 | 82 | 1011.2 |
| 20260507075453 | 86 | 113 | 10.0 | 15.0 | 0.00 | 0.00 | 0.00 | 82 | 1011.2 |
| 20260507074953 | 87 | 90 | 7.0 | 9.0 | 0.00 | 0.00 | 0.00 | 82 | 1011.2 |
| 20260507074453 | 88 | 90 | 9.0 | 11.0 | 0.00 | 0.00 | 0.00 | 80 | 1011.2 |
| 20260507073955 | 87 | 68 | 9.0 | 11.0 | 0.00 | 0.00 | 0.00 | 80 | 1011.2 |
| 20260507073453 | 88 | 113 | 9.0 | 11.0 | 0.00 | 0.00 | 0.00 | 77 | 1011.2 |
| 20260507072953 | 88 | 68 | 9.0 | 13.0 | 0.00 | 0.00 | 0.00 | 77 | 1011.2 |
| 20260507072454 | 88 | 113 | 11.0 | 14.0 | 0.00 | 0.00 | 0.00 | 76 | 1011.2 |
| 20260507071954 | 88 | 90 | 6.0 | 9.0 | 0.00 | 0.00 | 0.00 | 76 | 1011.2 |
| 20260507071453 | 89 | 90 | 13.0 | 16.0 | 0.00 | 0.00 | 0.00 | 73 | 1011.5 |
| 20260507070954 | 90 | 45 | 10.0 | 13.0 | 0.00 | 0.00 | 0.00 | 72 | 1011.5 |
| 20260507070455 | 89 | 68 | 10.0 | 16.0 | 0.00 | 0.00 | 0.00 | 74 | 1011.2 |
| 20260507065953 | 90 | 68 | 6.0 | 7.0 | 0.00 | 0.00 | 0.00 | 75 | 1011.2 |
| 20260507065454 | 90 | 68 | 12.0 | 14.0 | 0.00 | 0.00 | 0.00 | 73 | 1011.2 |
| 20260507064953 | 89 | 90 | 12.0 | 15.0 | 0.00 | 0.00 | 0.00 | 74 | 1011.2 |
| 20260507064454 | 90 | 68 | 12.0 | 15.0 | 0.00 | 0.00 | 0.00 | 71 | 1011.2 |
| 20260507063953 | 89 | 68 | 13.0 | 16.0 | 0.00 | 0.00 | 0.00 | 74 | 1010.8 |
| 20260507063453 | 89 | 113 | 9.0 | 10.0 | 0.00 | 0.00 | 0.00 | 74 | 1011.2 |
| 20260507062954 | 89 | 68 | 12.0 | 15.0 | 0.00 | 0.00 | 0.00 | 73 | 1011.2 |
| 20260507062458 | 90 | 68 | 8.0 | 10.0 | 0.00 | 0.00 | 0.00 | 72 | 1011.5 |
| 20260507061954 | 89 | 90 | 7.0 | 8.0 | 0.00 | 0.00 | 0.00 | 74 | 1011.2 |
| 20260507061453 | 88 | 45 | 9.0 | 13.0 | 0.00 | 0.00 | 0.00 | 75 | 1011.9 |
| 20260507060953 | 89 | 68 | 11.0 | 14.0 | 0.00 | 0.00 | 0.00 | 72 | 1011.9 |
| 20260507060453 | 89 | 90 | 12.0 | 17.0 | 0.00 | 0.00 | 0.00 | 74 | 1011.5 |
| 20260507055954 | 90 | 68 | 6.0 | 7.0 | 0.00 | 0.00 | 0.00 | 74 | 1011.5 |
| 20260507055453 | 90 | 23 | 9.0 | 13.0 | 0.00 | 0.00 | 0.00 | 71 | 1011.5 |
| 20260507054953 | 89 | 68 | 10.0 | 16.0 | 0.00 | 0.00 | 0.00 | 73 | 1011.5 |
| 20260507054453 | 89 | 45 | 9.0 | 10.0 | 0.00 | 0.00 | 0.00 | 73 | 1011.9 |
| 20260507053954 | 90 | 45 | 7.0 | 10.0 | 0.00 | 0.00 | 0.00 | 72 | 1011.9 |
| 20260507053453 | 89 | 45 | 9.0 | 11.0 | 0.00 | 0.00 | 0.00 | 73 | 1011.9 |
| 20260507052954 | 90 | 45 | 5.0 | 9.0 | 0.00 | 0.00 | 0.00 | 72 | 1011.9 |
| 20260507052453 | 89 | 23 | 6.0 | 8.0 | 0.00 | 0.00 | 0.00 | 73 | 1012.2 |
| 20260507051954 | 89 | 45 | 7.0 | 10.0 | 0.00 | 0.00 | 0.00 | 74 | 1012.2 |
| 20260507051454 | 89 | 90 | 7.0 | 11.0 | 0.00 | 0.00 | 0.00 | 74 | 1012.2 |
| 20260507050953 | 88 | 68 | 8.0 | 10.0 | 0.00 | 0.00 | 0.00 | 76 | 1012.5 |
| 20260507050457 | 89 | 68 | 6.0 | 7.0 | 0.00 | 0.00 | 0.00 | 74 | 1012.5 |
| 20260507045953 | 88 | 90 | 7.0 | 10.0 | 0.00 | 0.00 | 0.00 | 76 | 1012.9 |
| 20260507045453 | 87 | 45 | 4.0 | 5.0 | 0.00 | 0.00 | 0.00 | 77 | 1012.9 |
| 20260507044954 | 88 | 45 | 6.0 | 8.0 | 0.00 | 0.00 | 0.00 | 75 | 1012.9 |
| 20260507044453 | 89 | 45 | 9.0 | 11.0 | 0.00 | 0.00 | 0.00 | 76 | 1012.9 |
| 20260507043953 | 92 | 68 | 7.0 | 11.0 | 0.00 | 0.00 | 0.00 | 70 | 1012.9 |
| 20260507043453 | 90 | 68 | 11.0 | 13.0 | 0.00 | 0.00 | 0.00 | 72 | 1012.9 |
| 20260507042954 | 90 | 45 | 13.0 | 15.0 | 0.00 | 0.00 | 0.00 | 73 | 1012.9 |
| 20260507042453 | 91 | 68 | 12.0 | 14.0 | 0.00 | 0.00 | 0.00 | 71 | 1012.9 |
| 20260507041953 | 90 | 68 | 5.0 | 8.0 | 0.00 | 0.00 | 0.00 | 72 | 1012.9 |
| 20260507041453 | 93 | 23 | 5.0 | 5.0 | 0.00 | 0.00 | 0.00 | 71 | 1012.5 |
| 20260507040953 | 90 | 68 | 8.0 | 12.0 | 0.00 | 0.00 | 0.00 | 73 | 1012.9 |
| 20260507040454 | 89 | 68 | 7.0 | 10.0 | 0.00 | 0.00 | 0.00 | 75 | 1012.9 |
| 20260507035953 | 90 | 68 | 7.0 | 10.0 | 0.00 | 0.00 | 0.00 | 74 | 1012.9 |
| 20260507035454 | 88 | 68 | 9.0 | 13.0 | 0.00 | 0.00 | 0.00 | 77 | 1013.2 |
| 20260507034953 | 90 | 68 | 9.0 | 13.0 | 0.00 | 0.00 | 0.00 | 74 | 1013.2 |
| 20260507034454 | 90 | 90 | 7.0 | 8.0 | 0.00 | 0.00 | 0.00 | 75 | 1013.2 |
| 20260507033953 | 90 | 90 | 5.0 | 8.0 | 0.00 | 0.00 | 0.00 | 73 | 1013.2 |
| 20260507033454 | 92 | 90 | 4.0 | 7.0 | 0.00 | 0.00 | 0.00 | 68 | 1013.2 |
| 20260507032954 | 92 | 68 | 4.0 | 8.0 | 0.00 | 0.00 | 0.00 | 70 | 1013.2 |
| 20260507032454 | 92 | 45 | 7.0 | 10.0 | 0.00 | 0.00 | 0.00 | 69 | 1013.2 |
| 20260507031953 | 91 | 90 | 5.0 | 5.0 | 0.00 | 0.00 | 0.00 | 71 | 1013.2 |
| 20260507031453 | 92 | 68 | 4.0 | 5.0 | 0.00 | 0.00 | 0.00 | 70 | 1013.2 |
| 20260507030953 | 92 | 90 | 5.0 | 5.0 | 0.00 | 0.00 | 0.00 | 70 | 1013.5 |
| 20260507030454 | 91 | 68 | 8.0 | 13.0 | 0.00 | 0.00 | 0.00 | 71 | 1013.2 |
| 20260507025954 | 93 | 90 | 2.0 | 5.0 | 0.00 | 0.00 | 0.00 | 69 | 1013.5 |
| 20260507025453 | 93 | 113 | 2.0 | 2.0 | 0.00 | 0.00 | 0.00 | 68 | 1013.5 |
| 20260507024957 | 92 | 135 | 2.0 | 4.0 | 0.00 | 0.00 | 0.00 | 69 | 1013.2 |
| 20260507024453 | 92 | 45 | 3.0 | 4.0 | 0.00 | 0.00 | 0.00 | 70 | 1013.5 |
| 20260507023953 | 90 | 90 | 2.0 | 2.0 | 0.00 | 0.00 | 0.00 | 72 | 1013.5 |
| 20260507023454 | 92 | 68 | 2.0 | 3.0 | 0.00 | 0.00 | 0.00 | 73 | 1013.2 |
| 20260507022953 | 90 | 68 | 5.0 | 7.0 | 0.00 | 0.00 | 0.00 | 74 | 1013.2 |
| 20260507022454 | 89 | 113 | 7.0 | 10.0 | 0.00 | 0.00 | 0.00 | 73 | 1013.2 |
| 20260507021953 | 89 | 68 | 9.0 | 13.0 | 0.00 | 0.00 | 0.00 | 73 | 1013.2 |
| 20260507021453 | 90 | 68 | 6.0 | 8.0 | 0.00 | 0.00 | 0.00 | 73 | 1013.2 |
| 20260507020954 | 91 | 113 | 3.0 | 4.0 | 0.00 | 0.00 | 0.00 | 70 | 1013.5 |
| 20260507020454 | 91 | 68 | 4.0 | 5.0 | 0.00 | 0.00 | 0.00 | 71 | 1013.5 |
| 20260507015953 | 90 | 68 | 7.0 | 8.0 | 0.00 | 0.00 | 0.00 | 72 | 1013.5 |
| 20260507015453 | 90 | 68 | 7.0 | 8.0 | 0.00 | 0.00 | 0.00 | 73 | 1013.5 |
| 20260507014953 | 89 | 45 | 9.0 | 12.0 | 0.00 | 0.00 | 0.00 | 74 | 1013.5 |
| 20260507014453 | 90 | 68 | 3.0 | 5.0 | 0.00 | 0.00 | 0.00 | 72 | 1013.9 |
| 20260507013953 | 90 | 68 | 7.0 | 8.0 | 0.00 | 0.00 | 0.00 | 73 | 1013.5 |
| 20260507013453 | 90 | 45 | 5.0 | 8.0 | 0.00 | 0.00 | 0.00 | 73 | 1013.5 |
| 20260507012954 | 89 | 68 | 3.0 | 5.0 | 0.00 | 0.00 | 0.00 | 74 | 1013.5 |
| 20260507012453 | 89 | 68 | 6.0 | 10.0 | 0.00 | 0.00 | 0.00 | 73 | 1013.5 |
| 20260507011953 | 88 | 90 | 4.0 | 5.0 | 0.00 | 0.00 | 0.00 | 74 | 1013.9 |
| 20260507011454 | 88 | 113 | 7.0 | 10.0 | 0.00 | 0.00 | 0.00 | 74 | 1014.2 |
| 20260507010953 | 90 | 68 | 7.0 | 9.0 | 0.00 | 0.00 | 0.00 | 72 | 1013.9 |
| 20260507010455 | 88 | 68 | 7.0 | 8.0 | 0.00 | 0.00 | 0.00 | 75 | 1013.9 |
| 20260507005953 | 88 | 45 | 6.0 | 8.0 | 0.00 | 0.00 | 0.00 | 74 | 1013.9 |
| 20260507005453 | 88 | 90 | 5.0 | 9.0 | 0.00 | 0.00 | 0.00 | 75 | 1014.2 |
| 20260507004954 | 88 | 90 | 3.0 | 4.0 | 0.00 | 0.00 | 0.00 | 75 | 1014.2 |
| 20260507004454 | 88 | 45 | 6.0 | 7.0 | 0.00 | 0.00 | 0.00 | 74 | 1013.9 |
| 20260507003954 | 87 | 68 | 3.0 | 5.0 | 0.00 | 0.00 | 0.00 | 74 | 1013.9 |
| 20260507003453 | 88 | 90 | 3.0 | 5.0 | 0.00 | 0.00 | 0.00 | 73 | 1013.9 |
| 20260507002953 | 89 | 68 | 3.0 | 4.0 | 0.00 | 0.00 | 0.00 | 72 | 1013.9 |
| 20260507002453 | 91 | 90 | 5.0 | 6.0 | 0.00 | 0.00 | 0.00 | 69 | 1013.5 |
| 20260507001953 | 90 | 45 | 6.0 | 8.0 | 0.00 | 0.00 | 0.00 | 70 | 1013.9 |
| 20260507001009 | 91 | 113 | 2.0 | 3.0 | 0.00 | 0.00 | 0.00 | 71 | 1013.5 |
| 20260507000454 | 90 | 90 | 3.0 | 3.0 | 0.00 | 0.00 | 0.00 | 71 | 1013.5 |
| 20260506235953 | 89 | 45 | 2.0 | 2.0 | 0.00 | 0.00 | 0.00 | 72 | 1013.5 |
| 20260506235454 | 90 | 68 | 3.0 | 4.0 | 0.00 | 0.00 | 0.00 | 72 | 1013.5 |
| 20260506234953 | 89 | 180 | 3.0 | 3.0 | 0.00 | 0.00 | 0.00 | 73 | 1013.5 |
| 20260506234455 | 89 | 68 | 2.0 | 2.0 | 0.00 | 0.00 | 0.00 | 73 | 1013.9 |
| 20260506233953 | 88 | 68 | 3.0 | 4.0 | 0.00 | 0.00 | 0.00 | 73 | 1013.5 |
| 20260506233453 | 89 | 68 | 2.0 | 2.0 | 0.00 | 0.00 | 0.00 | 73 | 1013.9 |
| 20260506232953 | 89 | 45 | 3.0 | 4.0 | 0.00 | 0.00 | 0.00 | 70 | 1013.5 |
| 20260506232454 | 89 | 68 | 1.0 | 2.0 | 0.00 | 0.00 | 0.00 | 73 | 1013.5 |
| 20260506231954 | 89 | 135 | 0.0 | 1.0 | 0.00 | 0.00 | 0.00 | 76 | 1013.5 |
| 20260506231453 | 87 | 293 | 2.0 | 2.0 | 0.00 | 0.00 | 0.00 | 76 | 1013.5 |
| 20260506230953 | 88 | 135 | 0.0 | 0.0 | 0.00 | 0.00 | 0.00 | 78 | 1013.5 |
| 20260506230453 | 89 | 68 | 0.0 | 1.0 | 0.00 | 0.00 | 0.00 | 76 | 1013.5 |
| 20260506225953 | 87 | 90 | 0.0 | 0.0 | 0.00 | 0.00 | 0.00 | 79 | 1013.5 |
| 20260506225453 | 86 | 90 | 1.0 | 2.0 | 0.00 | 0.00 | 0.00 | 78 | 1013.2 |
| 20260506224954 | 85 | 45 | 0.0 | 0.0 | 0.00 | 0.00 | 0.00 | 82 | 1013.2 |
| 20260506224453 | 84 | 293 | 1.0 | 2.0 | 0.00 | 0.00 | 0.00 | 81 | 1013.2 |
| 20260506223953 | 83 | 248 | 1.0 | 1.0 | 0.00 | 0.00 | 0.00 | 82 | 1013.2 |
| 20260506223453 | 82 | 248 | 0.0 | 0.0 | 0.00 | 0.00 | 0.00 | 84 | 1012.9 |
| 20260506222954 | 82 | 90 | 0.0 | 0.0 | 0.00 | 0.00 | 0.00 | 86 | 1013.2 |
| 20260506222453 | 80 | 225 | 1.0 | 2.0 | 0.00 | 0.00 | 0.00 | 87 | 1013.2 |
| 20260506221954 | 80 | 293 | 1.0 | 2.0 | 0.00 | 0.00 | 0.00 | 87 | 1012.9 |
| 20260506221453 | 80 | 68 | 1.0 | 2.0 | 0.00 | 0.00 | 0.00 | 90 | 1012.9 |
| 20260506220954 | 79 | 293 | 0.0 | 0.0 | 0.00 | 0.00 | 0.00 | 91 | 1013.2 |
| 20260506220453 | 78 | 90 | 0.0 | 0.0 | 0.00 | 0.00 | 0.00 | 93 | 1012.9 |
| 20260506215953 | 78 | 90 | 0.0 | 0.0 | 0.00 | 0.00 | 0.00 | 94 | 1012.9 |
| 20260506215453 | 77 | 68 | 0.0 | 1.0 | 0.00 | 0.00 | 0.00 | 94 | 1012.9 |
| 20260506214953 | 77 | 270 | 0.0 | 1.0 | 0.00 | 0.00 | 0.00 | 94 | 1012.9 |
| 20260506214454 | 77 | 90 | 0.0 | 0.0 | 0.00 | 0.00 | 0.00 | 94 | 1012.5 |
| 20260506213954 | 77 | 68 | 0.0 | 0.0 | 0.00 | 0.00 | 0.00 | 95 | 1012.2 |
| 20260506213453 | 77 | 68 | 2.0 | 2.0 | 0.00 | 0.00 | 0.00 | 94 | 1012.9 |
| 20260506212954 | 77 | 45 | 0.0 | 0.0 | 0.00 | 0.00 | 0.00 | 94 | 1012.5 |
| 20260506212453 | 77 | 45 | 1.0 | 2.0 | 0.00 | 0.00 | 0.00 | 94 | 1012.5 |
| 20260506211954 | 77 | 23 | 0.0 | 0.0 | 0.00 | 0.00 | 0.00 | 94 | 1012.5 |
| 20260506211454 | 77 | 0 | 0.0 | 1.0 | 0.00 | 0.00 | 0.00 | 94 | 1012.5 |
| 20260506210954 | 77 | 0 | 0.0 | 1.0 | 0.00 | 0.00 | 0.00 | 93 | 1012.5 |
| 20260506210453 | 77 | 248 | 0.0 | 0.0 | 0.00 | 0.00 | 0.00 | 93 | 1012.5 |
| 20260506205953 | 77 | 135 | 0.0 | 0.0 | 0.00 | 0.00 | 0.00 | 92 | 1012.5 |
| 20260506205453 | 77 | 293 | 0.0 | 0.0 | 0.00 | 0.00 | 0.00 | 92 | 1012.5 |
| 20260506204953 | 78 | 113 | 0.0 | 0.0 | 0.00 | 0.00 | 0.00 | 92 | 1012.5 |
| 20260506204453 | 78 | 23 | 0.0 | 0.0 | 0.00 | 0.00 | 0.00 | 92 | 1012.5 |
| 20260506203953 | 78 | 248 | 0.0 | 0.0 | 0.00 | 0.00 | 0.00 | 92 | 1012.5 |
| 20260506203454 | 78 | 248 | 0.0 | 0.0 | 0.00 | 0.00 | 0.00 | 91 | 1012.2 |
| 20260506202954 | 78 | 0 | 0.0 | 0.0 | 0.00 | 0.00 | 0.00 | 91 | 1012.5 |
| 20260506202453 | 78 | 180 | 0.0 | 0.0 | 0.00 | 0.00 | 0.00 | 91 | 1012.2 |
| 20260506201955 | 78 | 90 | 0.0 | 1.0 | 0.00 | 0.00 | 0.00 | 91 | 1012.5 |
| 20260506201453 | 78 | 68 | 0.0 | 1.0 | 0.00 | 0.00 | 0.00 | 91 | 1012.5 |
| 20260506200954 | 78 | 113 | 0.0 | 0.0 | 0.00 | 0.00 | 0.00 | 91 | 1012.5 |
| 20260506200453 | 78 | 0 | 0.0 | 0.0 | 0.00 | 0.00 | 0.00 | 91 | 1012.5 |
| 20260506195954 | 78 | 68 | 1.0 | 2.0 | 0.00 | 0.00 | 0.00 | 91 | 1012.2 |
| 20260506195453 | 78 | 248 | 0.0 | 1.0 | 0.00 | 0.00 | 0.00 | 92 | 1012.5 |
| 20260506194953 | 78 | 338 | 0.0 | 0.0 | 0.00 | 0.00 | 0.00 | 92 | 1011.9 |
| 20260506194453 | 78 | 270 | 0.0 | 1.0 | 0.00 | 0.00 | 0.00 | 92 | 1012.2 |
| 20260506193953 | 78 | 68 | 0.0 | 0.0 | 0.00 | 0.00 | 0.00 | 92 | 1012.2 |
| 20260506193454 | 78 | 270 | 0.0 | 0.0 | 0.00 | 0.00 | 0.00 | 93 | 1012.2 |
| 20260506192954 | 78 | 135 | 0.0 | 0.0 | 0.00 | 0.00 | 0.00 | 93 | 1012.2 |
| 20260506192455 | 78 | 158 | 0.0 | 0.0 | 0.00 | 0.00 | 0.00 | 93 | 1011.9 |
| 20260506191953 | 78 | 0 | 0.0 | 0.0 | 0.00 | 0.00 | 0.00 | 93 | 1011.9 |
| 20260506191454 | 78 | 0 | 0.0 | 0.0 | 0.00 | 0.00 | 0.00 | 92 | 1012.2 |
| 20260506190953 | 78 | 248 | 0.0 | 0.0 | 0.00 | 0.00 | 0.00 | 92 | 1011.9 |
| 20260506190454 | 78 | 23 | 0.0 | 0.0 | 0.00 | 0.00 | 0.00 | 92 | 1011.9 |
| 20260506185953 | 78 | 23 | 0.0 | 0.0 | 0.00 | 0.00 | 0.00 | 91 | 1012.2 |
| 20260506185453 | 78 | 180 | 0.0 | 0.0 | 0.00 | 0.00 | 0.00 | 91 | 1012.2 |
| 20260506184953 | 78 | 23 | 0.0 | 0.0 | 0.00 | 0.00 | 0.00 | 91 | 1012.2 |
| 20260506184453 | 79 | 90 | 0.0 | 0.0 | 0.00 | 0.00 | 0.00 | 90 | 1012.2 |
| 20260506183954 | 79 | 23 | 0.0 | 0.0 | 0.00 | 0.00 | 0.00 | 90 | 1012.2 |
| 20260506183455 | 79 | 270 | 0.0 | 0.0 | 0.00 | 0.00 | 0.00 | 90 | 1011.9 |
| 20260506182953 | 79 | 270 | 2.0 | 2.0 | 0.00 | 0.00 | 0.00 | 90 | 1011.9 |
| 20260506182454 | 79 | 248 | 0.0 | 0.0 | 0.00 | 0.00 | 0.00 | 90 | 1012.2 |
| 20260506181953 | 79 | 113 | 0.0 | 0.0 | 0.00 | 0.00 | 0.00 | 91 | 1012.2 |
| 20260506181453 | 78 | 90 | 0.0 | 0.0 | 0.00 | 0.00 | 0.00 | 91 | 1012.5 |
| 20260506180953 | 79 | 45 | 0.0 | 0.0 | 0.00 | 0.00 | 0.00 | 90 | 1012.2 |
| 20260506180453 | 79 | 158 | 0.0 | 0.0 | 0.00 | 0.00 | 0.00 | 90 | 1012.2 |
| 20260506175956 | 79 | 23 | 0.0 | 0.0 | 0.00 | 0.00 | 0.00 | 90 | 1012.2 |
| 20260506175453 | 78 | 90 | 0.0 | 0.0 | 0.00 | 0.00 | 0.00 | 90 | 1012.2 |
| 20260506174955 | 78 | 90 | 0.0 | 0.0 | 0.00 | 0.00 | 0.00 | 90 | 1012.2 |
| 20260506174454 | 78 | 68 | 0.0 | 1.0 | 0.00 | 0.00 | 0.00 | 90 | 1012.5 |
| 20260506173953 | 78 | 23 | 0.0 | 0.0 | 0.00 | 0.00 | 0.00 | 90 | 1012.2 |
| 20260506173454 | 78 | 68 | 0.0 | 0.0 | 0.00 | 0.00 | 0.00 | 90 | 1012.5 |
| 20260506172954 | 78 | 113 | 0.0 | 0.0 | 0.00 | 0.00 | 0.00 | 90 | 1012.5 |
| 20260506172018 | 78 | 338 | 0.0 | 1.0 | 0.00 | 0.00 | 0.00 | 90 | 1012.5 |
| 20260506171453 | 78 | 90 | 0.0 | 0.0 | 0.00 | 0.00 | 0.00 | 90 | 1012.5 |
| 20260506170953 | 79 | 0 | 0.0 | 0.0 | 0.00 | 0.00 | 0.00 | 90 | 1012.5 |
| 20260506170454 | 79 | 90 | 0.0 | 0.0 | 0.00 | 0.00 | 0.00 | 89 | 1012.5 |
| 20260506165955 | 78 | 113 | 0.0 | 0.0 | 0.00 | 0.00 | 0.00 | 89 | 1012.9 |
| 20260506165454 | 79 | 90 | 0.0 | 0.0 | 0.00 | 0.00 | 0.00 | 90 | 1012.9 |
| 20260506164954 | 79 | 90 | 0.0 | 0.0 | 0.00 | 0.00 | 0.00 | 90 | 1012.5 |
| 20260506164453 | 78 | 338 | 4.0 | 5.0 | 0.00 | 0.00 | 0.00 | 90 | 1012.9 |
| 20260506163953 | 78 | 270 | 1.0 | 2.0 | 0.00 | 0.00 | 0.00 | 90 | 1012.9 |
| 20260506163453 | 78 | 338 | 1.0 | 2.0 | 0.00 | 0.00 | 0.00 | 91 | 1012.9 |
| 20260506162954 | 77 | 68 | 0.0 | 0.0 | 0.00 | 0.00 | 0.00 | 93 | 1012.9 |
| 20260506162453 | 77 | 45 | 0.0 | 1.0 | 0.00 | 0.00 | 0.00 | 92 | 1012.9 |
| 20260506161953 | 77 | 225 | 0.0 | 0.0 | 0.00 | 0.00 | 0.00 | 92 | 1013.2 |
| 20260506161453 | 77 | 68 | 0.0 | 0.0 | 0.00 | 0.00 | 0.00 | 92 | 1012.9 |
| 20260506160954 | 77 | 225 | 0.0 | 1.0 | 0.00 | 0.00 | 0.00 | 92 | 1012.9 |
| 20260506160453 | 77 | 293 | 0.0 | 0.0 | 0.00 | 0.00 | 0.00 | 92 | 1013.2 |
| 20260506155953 | 77 | 68 | 0.0 | 1.0 | 0.00 | 0.00 | 0.00 | 91 | 1013.2 |
| 20260506155454 | 77 | 68 | 0.0 | 1.0 | 0.00 | 0.00 | 0.00 | 91 | 1013.5 |
| 20260506154954 | 77 | 68 | 0.0 | 0.0 | 0.00 | 0.00 | 0.00 | 92 | 1013.5 |
| 20260506154455 | 77 | 90 | 0.0 | 0.0 | 0.00 | 0.00 | 0.00 | 92 | 1013.5 |
| 20260506153954 | 77 | 90 | 2.0 | 2.0 | 0.00 | 0.00 | 0.00 | 92 | 1013.5 |
| 20260506153453 | 77 | 90 | 0.0 | 0.0 | 0.00 | 0.00 | 0.00 | 92 | 1013.5 |
| 20260506152954 | 77 | 68 | 0.0 | 0.0 | 0.00 | 0.00 | 0.00 | 92 | 1013.5 |
| 20260506152454 | 77 | 68 | 1.0 | 2.0 | 0.00 | 0.00 | 0.00 | 92 | 1013.9 |
| 20260506151957 | 77 | 293 | 1.0 | 2.0 | 0.00 | 0.00 | 0.00 | 92 | 1013.5 |
| 20260506151454 | 77 | 90 | 0.0 | 0.0 | 0.00 | 0.00 | 0.00 | 92 | 1013.5 |
| 20260506150955 | 77 | 270 | 0.0 | 0.0 | 0.00 | 0.00 | 0.00 | 91 | 1013.9 |
| 20260506150454 | 78 | 315 | 0.0 | 0.0 | 0.00 | 0.00 | 0.00 | 91 | 1013.9 |